Location: Abundant Grace Fellowship
(35.0349°N, 90.0924°W)
Time: 08:18:48
(UTC+00:00)

Cosmos 909 Rocket - Pass Details

Date: 18 January 2026
Orbit: 992 x 2087 km, 65.9° (Epoch: 10 February)

Event Time Altitude Azimuth Distance (km) Brightness Sun altitude
Exits shadow 10:19:31 75° 128° (SE) 1,190 4.3 -34.0°
Drops below altitude 10° 10:26:46 10° 151° (SSE) 3,368 7.1 -32.5°
Sets 10:29:54 0° 152° (SSE) 4,495 7.8 -31.9°
